sat.trackr.live / text

‹ back to catalog

ALTAIR (RS65S)

NORAD 61779 · 2024-199AW

PAYLOAD ACTIVE UNKNOWN

§ Identity

Operator
Country
CIS
Launch date
2024-11-04
Launch site
VOSTO
Launch vehicle
Mass (kg)
RCS (m²)

Purposes: comms

External: N2YO · Heavens-Above · Gunter

§ Orbital elements

Epoch: 2026-05-25T04:36:47.242944Z

Period
93.72 min
Inclination
97.3065°
Eccentricity
0.0013809
Mean motion
15.36544933 rev/d
Perigee alt
446.9 km
Apogee alt
465.8 km
Semi-major
6,834.5 km
B*
2.6709e-4
RAAN
14.6992°
Arg perigee
36.3729°
Mean anomaly
323.8451°
Rev number
13,358

§ Raw data

ALTAIR (RS65S)1 61779U 24199AW  26145.19221346  .00009476  00000+0  26709-3 0  99932 61779  97.3065  14.6992 0013809  36.3729 323.8451 15.36544933133583

JSON: /api/v1/satellites/61779 · /tle

For live sub-satellite position, see the globe view (requires WebGL).

§ Visibility from observer

Set your observer location to see the next 7 days of passes ≥ 10°. The values pass through the URL so the page stays shareable.

No JS? Fill the form by hand. The geolocation button needs JavaScript.

§ Radio — SatNOGS DB

ModeDescriptionDownlinkUplink
BPSK Mode U - BPSK (DOKA) - 4k8 435.615 MHz
BPSK Mode U - BPSK (DOKA) - 4k8 435.715 MHz
AFSK Mode U - Transmitter 435.215 MHz

3 transmitters · refreshed weekly from db.satnogs.org